• In Belarus
  • List of Countries
  • For 7 days
  • Water Temperature
  • Satellite Maps
  • Weather Map
  • Weather Widgets
  • user-avatar
    Login

    Hourly Weather Channapatna

    Today, 15 November, Thursday

    Time Temperature Precipitation Wind Pressure Humidity
    00:00 +21°C° 0 mm 1 mps 701 mmHg 53%
    01:00 +20°C° 0 mm 1 mps 700 mmHg 55%
    02:00 +20°C° 0 mm 1 mps 700 mmHg 56%
    03:00 +20°C° 0 mm 1 mps 700 mmHg 58%
    04:00 +19°C° 0 mm 1 mps 700 mmHg 59%
    05:00 +17°C° 0 mm 0 mps 700 mmHg 68%
    06:00 +21°C° 0 mm 1 mps 701 mmHg 64%
    07:00 +22°C° 0 mm 1 mps 701 mmHg 61%
    08:00 +24°C° 0 mm 1 mps 702 mmHg 58%
    09:00 +26°C° 0 mm 2 mps 702 mmHg 53%
    10:00 +28°C° 0 mm 3 mps 702 mmHg 48%
    11:00 +30°C° 0 mm 3 mps 702 mmHg 43%
    12:00 +30°C° 0 mm 3 mps 702 mmHg 44%
    13:00 +31°C° 0 mm 3 mps 702 mmHg 44%
    14:00 +32°C° 0 mm 4 mps 701 mmHg 45%
    15:00 +30°C° 0 mm 3 mps 701 mmHg 52%
    16:00 +29°C° 0 mm 3 mps 701 mmHg 59%
    17:00 +27°C° 0 mm 3 mps 701 mmHg 66%
    18:00 +26°C° 0.1 mm 3 mps 701 mmHg 69%
    19:00 +25°C° 0.1 mm 3 mps 702 mmHg 71%
    20:00 +25°C° 0.1 mm 3 mps 702 mmHg 74%
    21:00 +24°C° 0 mm 3 mps 702 mmHg 76%
    22:00 +24°C° 0 mm 3 mps 702 mmHg 79%
    23:00 +24°C° 0 mm 3 mps 702 mmHg 81%

    Tomorrow, 16 November, Friday

    Time Temperature Precipitation Wind Pressure Humidity
    00:00 +22°C° 0 mm 3 mps 702 mmHg 83%
    01:00 +22°C° 0 mm 3 mps 701 mmHg 86%
    02:00 +22°C° 0 mm 3 mps 701 mmHg 88%
    03:00 +22°C° 0 mm 3 mps 701 mmHg 89%
    04:00 +21°C° 0 mm 3 mps 701 mmHg 90%
    05:00 +21°C° 0 mm 3 mps 701 mmHg 91%
    06:00 +22°C° 0 mm 3 mps 701 mmHg 88%
    07:00 +23°C° 0 mm 4 mps 702 mmHg 85%
    08:00 +25°C° 0 mm 4 mps 702 mmHg 82%
    09:00 +26°C° 0.1 mm 5 mps 702 mmHg 78%
    10:00 +27°C° 0.1 mm 5 mps 702 mmHg 74%
    11:00 +28°C° 0.1 mm 6 mps 702 mmHg 71%
    12:00 +27°C° 0.6 mm 6 mps 702 mmHg 73%
    13:00 +27°C° 0.6 mm 6 mps 701 mmHg 75%
    14:00 +26°C° 0.6 mm 6 mps 700 mmHg 77%
    15:00 +26°C° 0.5 mm 5 mps 700 mmHg 81%
    16:00 +25°C° 0.5 mm 4 mps 700 mmHg 84%
    17:00 +25°C° 0.5 mm 4 mps 701 mmHg 87%
    18:00 +23°C° 0 mm 4 mps 701 mmHg 89%
    19:00 +24°C° 0 mm 3 mps 702 mmHg 91%
    20:00 +22°C° 0 mm 3 mps 702 mmHg 93%
    21:00 +22°C° 0 mm 3 mps 702 mmHg 93%
    22:00 +22°C° 0 mm 3 mps 702 mmHg 94%
    23:00 +21°C° 0 mm 2 mps 702 mmHg 95%

    Day after tomorrow, 17 November, Saturday

    Time Temperature Precipitation Wind Pressure Humidity
    00:00 +21°C° 0 mm 2 mps 702 mmHg 95%
    01:00 +21°C° 0 mm 2 mps 701 mmHg 95%
    02:00 +21°C° 0 mm 2 mps 701 mmHg 96%
    03:00 +21°C° 0 mm 2 mps 701 mmHg 96%
    04:00 +21°C° 0 mm 2 mps 701 mmHg 96%
    05:00 +20°C° 0 mm 2 mps 701 mmHg 96%
    06:00 +22°C° 0 mm 3 mps 701 mmHg 92%
    07:00 +24°C° 0 mm 3 mps 702 mmHg 88%
    08:00 +25°C° 0 mm 3 mps 703 mmHg 84%
    09:00 +26°C° 0 mm 4 mps 703 mmHg 78%
    10:00 +28°C° 0 mm 4 mps 703 mmHg 71%
    11:00 +29°C° 0 mm 4 mps 703 mmHg 64%
    12:00 +30°C° 0 mm 4 mps 702 mmHg 62%
    13:00 +30°C° 0 mm 4 mps 701 mmHg 61%
    14:00 +30°C° 0 mm 4 mps 700 mmHg 59%
    15:00 +29°C° 0.3 mm 3 mps 700 mmHg 65%
    16:00 +28°C° 0.3 mm 3 mps 700 mmHg 70%
    17:00 +27°C° 0.3 mm 2 mps 700 mmHg 75%
    18:00 +26°C° 0 mm 2 mps 701 mmHg 78%
    19:00 +25°C° 0 mm 2 mps 701 mmHg 81%
    20:00 +24°C° 0 mm 2 mps 702 mmHg 84%
    21:00 +24°C° 0 mm 2 mps 702 mmHg 86%
    22:00 +23°C° 0 mm 2 mps 702 mmHg 88%
    23:00 +23°C° 0 mm 2 mps 702 mmHg 90%

    18 November, Sunday

    Time Temperature Precipitation Wind Pressure Humidity
    00:00 +23°C° 0 mm 2 mps 701 mmHg 91%
    01:00 +21°C° 0 mm 2 mps 701 mmHg 93%
    02:00 +21°C° 0 mm 2 mps 701 mmHg 95%
    03:00 +21°C° 0 mm 2 mps 701 mmHg 95%
    04:00 +21°C° 0 mm 2 mps 701 mmHg 96%
    05:00 +21°C° 0 mm 2 mps 701 mmHg 96%
    06:00 +23°C° 0 mm 2 mps 702 mmHg 92%
    07:00 +24°C° 0 mm 2 mps 702 mmHg 87%
    08:00 +25°C° 0 mm 2 mps 703 mmHg 83%
    09:00 +27°C° 0 mm 3 mps 703 mmHg 76%
    10:00 +28°C° 0 mm 3 mps 703 mmHg 69%
    11:00 +30°C° 0 mm 3 mps 703 mmHg 62%
    12:00 +30°C° 0.4 mm 3 mps 702 mmHg 62%
    13:00 +30°C° 0.4 mm 3 mps 701 mmHg 62%
    14:00 +30°C° 0.4 mm 3 mps 700 mmHg 62%
    15:00 +29°C° 1.2 mm 3 mps 700 mmHg 67%
    16:00 +28°C° 1.2 mm 3 mps 700 mmHg 73%
    17:00 +27°C° 1.2 mm 3 mps 700 mmHg 78%
    18:00 +26°C° 1.6 mm 3 mps 701 mmHg 81%
    19:00 +25°C° 1.6 mm 3 mps 702 mmHg 84%
    20:00 +23°C° 1.6 mm 4 mps 703 mmHg 87%
    21:00 +24°C° 0 mm 3 mps 703 mmHg 89%
    22:00 +22°C° 0 mm 3 mps 703 mmHg 91%
    23:00 +22°C° 0 mm 3 mps 703 mmHg 93%

    19 November, Monday

    Time Temperature Precipitation Wind Pressure Humidity
    00:00 +23°C° 0.1 mm 2 mps 702 mmHg 94%
    01:00 +23°C° 0.1 mm 2 mps 702 mmHg 94%
    02:00 +23°C° 0.1 mm 2 mps 701 mmHg 95%
    03:00 +21°C° 0.1 mm 2 mps 701 mmHg 95%
    04:00 +21°C° 0.1 mm 2 mps 702 mmHg 95%
    05:00 +21°C° 0.1 mm 2 mps 702 mmHg 95%
    06:00 +23°C° 0 mm 2 mps 702 mmHg 91%
    07:00 +24°C° 0 mm 3 mps 703 mmHg 88%
    08:00 +25°C° 0 mm 3 mps 704 mmHg 84%
    09:00 +26°C° 0 mm 3 mps 704 mmHg 78%
    10:00 +28°C° 0 mm 3 mps 704 mmHg 73%
    11:00 +29°C° 0 mm 4 mps 704 mmHg 68%
    12:00 +29°C° 1 mm 3 mps 703 mmHg 67%
    13:00 +29°C° 1 mm 3 mps 702 mmHg 66%
    14:00 +29°C° 1 mm 3 mps 701 mmHg 65%
    15:00 +28°C° 1.7 mm 3 mps 701 mmHg 71%
    16:00 +27°C° 1.7 mm 3 mps 702 mmHg 76%
    17:00 +26°C° 1.7 mm 3 mps 702 mmHg 82%
    18:00 +25°C° 0.9 mm 3 mps 702 mmHg 84%
    19:00 +24°C° 0.9 mm 3 mps 703 mmHg 87%
    20:00 +24°C° 0.9 mm 3 mps 704 mmHg 89%
    21:00 +24°C° 0 mm 3 mps 704 mmHg 90%
    22:00 +23°C° 0 mm 2 mps 704 mmHg 92%
    23:00 +23°C° 0 mm 2 mps 703 mmHg 93%

    20 November, Tuesday

    Time Temperature Precipitation Wind Pressure Humidity
    00:00 +23°C° 0 mm 2 mps 703 mmHg 94%
    01:00 +21°C° 0 mm 2 mps 703 mmHg 95%
    02:00 +21°C° 0 mm 2 mps 702 mmHg 95%
    03:00 +21°C° 0 mm 2 mps 702 mmHg 95%
    04:00 +21°C° 0 mm 2 mps 702 mmHg 95%
    05:00 +22°C° 0 mm 1 mps 702 mmHg 95%
    06:00 +23°C° 0 mm 2 mps 703 mmHg 92%
    07:00 +23°C° 0 mm 2 mps 704 mmHg 88%
    08:00 +24°C° 0 mm 2 mps 704 mmHg 84%
    09:00 +26°C° 0 mm 2 mps 704 mmHg 76%
    10:00 +27°C° 0 mm 3 mps 704 mmHg 68%
    11:00 +29°C° 0 mm 3 mps 704 mmHg 60%
    12:00 +29°C° 0 mm 3 mps 703 mmHg 57%
    13:00 +30°C° 0 mm 3 mps 703 mmHg 54%
    14:00 +30°C° 0 mm 3 mps 702 mmHg 51%
    15:00 +29°C° 0 mm 3 mps 702 mmHg 57%
    16:00 +28°C° 0 mm 3 mps 702 mmHg 62%
    17:00 +27°C° 0 mm 3 mps 702 mmHg 68%
    18:00 +25°C° 0 mm 3 mps 703 mmHg 71%
    19:00 +24°C° 0 mm 3 mps 704 mmHg 74%
    20:00 +22°C° 0 mm 3 mps 704 mmHg 78%
    21:00 +23°C° 0 mm 2 mps 704 mmHg 81%
    22:00 +21°C° 0 mm 2 mps 704 mmHg 84%
    23:00 +21°C° 0 mm 2 mps 704 mmHg 87%
    Show more